Weather History for Black River Falls, WI

Change the Weather History Date:

Friday, December 28, 2012

  Actual Average (KLSE) Record (KLSE)
Temperature  
Mean Temperature 22 °F 18 °F  
Max Temperature 26 °F 26 °F 60 °F (1984)
Min Temperature 19 °F 11 °F -25 °F (1880)
Degree Days  
Heating Degree Days 42 47  
Month to date heating degree days 1203  
Since 1 July heating degree days 2703  
Cooling Degree Days 0 0  
Month to date cooling degree days 0  
Year to date cooling degree days 782  
Moisture  
Dew Point 20 °F    
Average Humidity 92    
Maximum Humidity 100    
Minimum Humidity 80    
Precipitation  
Precipitation 0.00 in 0.04 in 0.62 in (1966)
Month to date precipitation 1.26  
Year to date precipitation 32.96  
Snow  
Snow 0.00 in 0.40 in 8.60 in (1966)
Month to date snowfall 10.4  
Since 1 July snowfall 14.7  
Snow Depth -    
Sea Level Pressure  
Sea Level Pressure 30.02 in    
Wind  
Wind Speed 3 mph (NE)    
Max Wind Speed 8 mph    
Max Gust Speed -    
Visibility 3 miles    
Events Snow    
T = Trace of Precipitation, MM = Missing Value Source: NWS Daily Summary

Daily Weather History Graph

Daily Weather History Graph

Search for Another Location

Airport:

Trip Planner

Search our weather history database for the weather conditions in past years. The results will help you decide how hot, cold, wet, or windy it might be!

Date:

Astronomy

Dec. 28, 2012 Rise Set
Actual Time 7:38 AM CST 4:32 PM CST
Civil Twilight 7:05 AM CST 5:05 PM CST
Nautical Twilight 6:28 AM CST 5:41 PM CST
Astronomical Twilight 5:53 AM CST 6:17 PM CST
Moon 5:11 PM CST (12/28) 7:31 AM CST (12/28)
Length of Visible Light 9h 59m
Length of Day
8h 53m
Full, 100% of the Moon is Illuminated
Dec 28
Full
Jan 4
Last Quarter
Jan 11
New
Jan 18
First Quarter
Jan 26
Full

Hourly Weather History & Observations

Time (CST) Temp. Windchill Dew Point Humidity Pressure Visibility Wind Dir Wind Speed Gust Speed Precip Events Conditions
12:15 AM 21.2 °F 16.4 °F 17.6 °F 86% 30.13 in 1.2 mi ENE 3.5 mph - N/A Snow Light Snow
12:35 AM 19.4 °F 14.3 °F 17.6 °F 93% 30.13 in 1.8 mi NE 3.5 mph - N/A Snow Light Snow
12:55 AM 19.4 °F - 17.6 °F 93% 30.13 in 4.0 mi Calm Calm - N/A Snow Light Snow
1:15 AM 19.4 °F 14.3 °F 17.6 °F 93% 30.13 in 3.0 mi NNE 3.5 mph - N/A Snow Light Snow
1:35 AM 19.4 °F - 17.6 °F 93% 30.13 in 10.0 mi Calm Calm - N/A   Overcast
1:55 AM 19.4 °F - 17.6 °F 93% 30.13 in 5.0 mi Calm Calm - N/A Snow Light Snow
2:15 AM 19.4 °F - 17.6 °F 93% 30.13 in 1.5 mi Calm Calm - N/A Snow Light Snow
2:35 AM 19.4 °F 14.3 °F 17.6 °F 93% 30.13 in 1.0 mi NNE 3.5 mph - N/A Snow Light Snow
2:55 AM 19.4 °F 12.8 °F 17.6 °F 93% 30.13 in 1.0 mi NNE 4.6 mph - N/A Snow Light Snow
3:15 AM 19.4 °F 14.3 °F 17.6 °F 93% 30.12 in 5.0 mi NNE 3.5 mph - N/A Snow Light Snow
3:35 AM 19.4 °F 14.3 °F 17.6 °F 93% 30.12 in 1.2 mi NE 3.5 mph - N/A Snow Light Snow
3:55 AM 19.4 °F 14.3 °F 17.6 °F 93% 30.11 in 2.0 mi NNE 3.5 mph - N/A Snow Light Snow
5:15 AM 19.4 °F 14.3 °F 17.6 °F 93% 30.08 in 2.0 mi NNE 3.5 mph - N/A Snow Light Snow
6:15 AM 19.4 °F 12.8 °F 17.6 °F 93% 30.07 in 4.0 mi NNE 4.6 mph - N/A Snow Light Snow
6:55 AM 19.4 °F 12.8 °F 17.6 °F 93% 30.07 in 2.0 mi ENE 4.6 mph - N/A Snow Light Snow
7:15 AM 19.4 °F 14.3 °F 17.6 °F 93% 30.07 in 4.0 mi ENE 3.5 mph - N/A Snow Light Snow
7:35 AM 19.4 °F 12.8 °F 17.6 °F 93% 30.06 in 4.0 mi ENE 4.6 mph - N/A Snow Light Snow
7:55 AM 19.4 °F 14.3 °F 17.6 °F 93% 30.06 in 2.5 mi NE 3.5 mph - N/A Snow Light Snow
8:15 AM 19.4 °F - 17.6 °F 93% 30.06 in 2.0 mi Calm Calm - N/A Snow Light Snow
8:35 AM 19.4 °F - 17.6 °F 93% 30.06 in 0.8 mi Calm Calm - N/A Snow Light Snow
8:55 AM 21.2 °F 14.9 °F 19.4 °F 93% 30.06 in 1.0 mi NE 4.6 mph - N/A Snow Light Snow
9:15 AM 21.2 °F 14.9 °F 19.4 °F 93% 30.06 in 1.8 mi ENE 4.6 mph - N/A Snow Light Snow
9:35 AM 21.2 °F 16.4 °F 19.4 °F 93% 30.06 in 1.5 mi NE 3.5 mph - N/A Snow Light Snow
9:55 AM 21.2 °F 13.6 °F 19.4 °F 93% 30.06 in 1.5 mi ENE 5.8 mph - N/A Snow Light Snow
10:15 AM 23.0 °F 14.7 °F 19.4 °F 86% 30.05 in 1.5 mi ENE 6.9 mph - N/A Snow Light Snow
10:35 AM 23.0 °F 14.7 °F 19.4 °F 86% 30.05 in 1.8 mi ENE 6.9 mph - N/A Snow Light Snow
10:55 AM 23.0 °F 13.9 °F 19.4 °F 86% 30.05 in 2.5 mi ENE 8.1 mph - N/A Snow Light Snow
11:15 AM 23.0 °F 14.7 °F 19.4 °F 86% 30.04 in 2.5 mi ENE 6.9 mph - N/A Snow Light Snow
11:35 AM 24.8 °F 16.9 °F 21.2 °F 86% 30.03 in 1.2 mi ENE 6.9 mph - N/A Snow Light Snow
11:55 AM 24.8 °F 16.9 °F 21.2 °F 86% 30.02 in 1.5 mi ENE 6.9 mph - N/A Snow Light Snow
12:15 PM 24.8 °F 16.1 °F 21.2 °F 86% 30.01 in 2.0 mi ENE 8.1 mph - N/A Snow Light Snow
12:35 PM 24.8 °F 16.9 °F 21.2 °F 86% 30.00 in 1.0 mi East 6.9 mph - N/A Snow Light Snow
12:55 PM 24.8 °F 16.1 °F 21.2 °F 86% 29.98 in 2.0 mi ENE 8.1 mph - N/A Snow Light Snow
1:15 PM 26.6 °F 19.1 °F 21.2 °F 80% 29.98 in 2.0 mi ENE 6.9 mph - N/A Snow Light Snow
1:35 PM 26.6 °F 20.0 °F 21.2 °F 80% 29.97 in 2.5 mi ENE 5.8 mph - N/A Snow Light Snow
2:15 PM 26.6 °F 21.2 °F 21.2 °F 80% 29.96 in 2.5 mi NE 4.6 mph - N/A Snow Light Snow
2:35 PM 26.6 °F 20.0 °F 21.2 °F 80% 29.96 in 3.0 mi NE 5.8 mph - N/A Snow Light Snow
2:55 PM 26.6 °F 19.1 °F 21.2 °F 80% 29.96 in 2.0 mi ENE 6.9 mph - N/A Snow Light Snow
3:15 PM 26.6 °F 21.2 °F 23.0 °F 86% 29.96 in 3.0 mi NE 4.6 mph - N/A Snow Light Snow
3:35 PM 26.6 °F 21.2 °F 23.0 °F 86% 29.96 in 2.5 mi ENE 4.6 mph - N/A Snow Light Snow
3:55 PM 26.6 °F 22.6 °F 23.0 °F 86% 29.96 in 2.0 mi NE 3.5 mph - N/A Snow Light Snow
4:15 PM 26.6 °F 20.0 °F 23.0 °F 86% 29.96 in 2.0 mi NE 5.8 mph - N/A Snow Light Snow
4:55 PM 24.8 °F - 23.0 °F 93% 29.96 in 2.5 mi Calm Calm - N/A Snow Light Snow
5:15 PM 24.8 °F 20.5 °F 24.8 °F 100% 29.97 in 2.5 mi NNE 3.5 mph - N/A Snow Light Snow
5:35 PM 24.8 °F 20.5 °F 24.8 °F 100% 29.97 in 3.0 mi North 3.5 mph - N/A Snow Light Snow
6:15 PM 23.0 °F 18.4 °F 23.0 °F 100% 29.97 in 2.5 mi North 3.5 mph - N/A Snow Light Snow
6:35 PM 23.0 °F 18.4 °F 23.0 °F 100% 29.97 in 2.5 mi NNE 3.5 mph - N/A Snow Light Snow
6:55 PM 23.0 °F - 23.0 °F 100% 29.97 in 2.5 mi Calm Calm - N/A Snow Light Snow
7:15 PM 23.0 °F - 23.0 °F 100% 29.97 in 4.0 mi Calm Calm - N/A Snow Light Snow
7:35 PM 23.0 °F - 23.0 °F 100% 29.97 in 4.0 mi Calm Calm - N/A Snow Light Snow
7:55 PM 23.0 °F - 23.0 °F 100% 29.97 in 4.0 mi Calm Calm - N/A Snow Light Snow
8:15 PM 23.0 °F - 23.0 °F 100% 29.97 in 3.0 mi Calm Calm - N/A Snow Light Snow
8:35 PM 23.0 °F - 23.0 °F 100% 29.96 in 5.0 mi Calm Calm - N/A Snow Light Snow
9:35 PM 21.2 °F - 21.2 °F 100% 29.95 in 5.0 mi Calm Calm - N/A Snow Light Snow
9:55 PM 21.2 °F - 21.2 °F 100% 29.95 in 5.0 mi Calm Calm - N/A Snow Light Snow
10:15 PM 21.2 °F - 21.2 °F 100% 29.95 in 5.0 mi Calm Calm - N/A Snow Light Snow
10:35 PM 21.2 °F - 21.2 °F 100% 29.95 in 5.0 mi Calm Calm - N/A Snow Light Snow
10:55 PM 23.0 °F - 23.0 °F 100% 29.95 in 4.0 mi Calm Calm - N/A Snow Light Snow
11:15 PM 21.2 °F - 21.2 °F 100% 29.94 in 10.0 mi Calm Calm - N/A   Overcast
11:35 PM 21.2 °F - 21.2 °F 100% 29.94 in 10.0 mi Calm Calm - N/A   Overcast
11:55 PM 23.0 °F 18.4 °F 23.0 °F 100% 29.94 in 10.0 mi NW 3.5 mph - N/A   Overcast